Dewpoint
52 43 40 26 18 18 14 15 20 25 46 55 57 56 54 57 52 46 63 64 68 68 69 69 69 68 67 65 64 63 62 62 61 62 63 62 61 60 60 60 60 59 59 62 63 62 61 62 64
44 42 29 17 11 10 8 16 17 33 51 50 52 54 56 55 59 60 62 67 68 68 68 68 68 67 66 65 63 61 61 61 62 62 61 61 61 61 60 60 60 58 58 58 61 63 64 64 64
37 29 25 16 9 6 9 13 35 51 52 49 51 55 57 56 60 61 65 67 68 67 68 68 68 67 65 64 62 62 62 63 63 62 60 60 61 61 60 59 59 58 56 54 56 60 62 61 61
31 25 15 10 6 9 10 25 44 49 48 49 50 51 57 62 62 64 66 68 67 67 67 67 67 66 64 63 63 63 63 64 63 62 61 61 60 60 60 59 58 58 56 53 52 56 57 57 58
22 19 14 9 6 10 35 46 48 45 48 49 50 52 55 62 65 65 66 67 67 67 67 67 66 65 64 64 64 64 64 64 63 62 62 61 61 60 60 59 58 58 57 56 54 54 55 57 57
21 17 13 10 10 19 43 47 46 46 49 47 48 51 55 62 63 64 64 63 66 66 66 66 66 65 64 64 65 65 64 64 63 62 62 62 61 60 60 58 57 57 57 57 56 56 54 54 57
21 17 13 11 11 11 35 48 44 44 46 46 51 51 56 61 63 62 61 61 62 64 63 63 62 62 64 65 65 65 64 64 63 63 62 62 61 60 58 58 57 57 57 55 54 55 55 55 53
22 19 14 11 9 10 37 47 49 45 47 55 55 50 53 59 60 60 60 60 59 58 59 59 60 62 63 64 64 64 64 64 63 63 62 60 60 58 57 56 57 57 57 57 55 55 54 54 53
18 17 14 13 14 16 46 44 47 55 53 55 56 55 58 59 59 57 57 58 57 56 55 57 59 60 61 62 63 64 64 63 62 61 61 59 58 57 53 55 55 56 56 55 53 51 49 49 49
19 16 15 16 14 21 45 44 45 49 52 53 54 58 59 58 57 55 55 55 56 55 57 58 57 57 60 60 62 62 62 61 60 60 58 58 57 55 57 55 53 57 55 55 52 48 45 40 39
16 15 15 14 17 37 43 45 45 48 47 52 52 56 57 57 56 55 54 54 54 55 53 54 53 55 60 59 60 59 59 58 58 58 57 57 56 57 56 52 51 50 48 45 43 41 39 37 36
17 17 16 15 37 43 43 44 42 43 44 53 55 57 56 56 56 55 55 55 55 53 53 54 54 53 58 59 58 58 57 57 56 57 58 57 53 54 53 51 50 46 46 43 42 39 36 35 34
15 15 29 36 42 41 42 41 46 50 52 55 55 55 55 55 56 57 56 56 55 55 56 55 55 59 60 58 57 57 56 56 56 56 57 58 53 51 51 52 47 46 45 42 40 37 34 34 34
32 39 39 41 40 40 39 44 45 53 54 54 54 54 54 54 56 56 55 54 55 54 56 58 60 60 59 58 57 57 56 56 58 57 57 58 56 52 52 50 46 46 43 41 39 35 33 32 32
27 35 38 39 38 36 38 33 42 53 54 53 53 54 54 55 54 55 55 54 54 55 56 59 61 59 58 57 56 57 57 59 59 58 59 59 57 54 49 47 46 45 42 39 37 35 34 32 32
26 32 32 37 36 33 30 27 44 54 53 52 53 53 55 55 54 53 54 55 54 56 58 59 60 57 57 56 57 58 59 59 57 57 56 55 54 51 47 46 46 43 42 39 37 35 34 33 31
20 20 26 32 35 33 30 25 40 53 52 52 52 53 54 55 54 53 54 54 55 55 56 58 59 57 56 57 57 58 59 58 57 56 54 52 50 47 46 47 46 44 42 40 38 37 35 33 31
21 20 20 27 29 33 31 29 39 51 50 52 51 52 53 55 54 54 56 55 54 55 57 57 58 57 56 57 57 57 58 57 56 54 53 51 49 47 46 47 46 43 42 39 38 36 36 34 32
24 23 21 24 26 29 30 30 31 46 49 50 53 53 54 55 55 57 57 57 55 55 56 56 57 57 56 56 56 56 56 55 54 52 51 50 49 47 47 47 44 43 41 39 36 36 35 35 34
25 23 22 23 24 26 27 28 27 39 48 48 52 53 54 55 55 56 57 57 55 55 55 56 57 56 56 57 55 55 54 54 54 52 50 49 48 48 46 44 43 41 39 38 37 36 36 36 34
24 23 22 22 24 27 25 23 25 27 39 46 48 51 52 53 54 55 55 56 56 55 55 56 57 56 56 56 54 53 52 52 51 50 49 48 49 48 45 43 41 39 38 37 36 36 35 34 35
23 25 24 23 22 19 23 17 19 23 31 38 44 48 49 50 53 54 54 55 55 54 54 56 56 56 56 55 54 52 52 50 51 50 48 48 48 47 45 42 39 39 39 38 38 38 37 36 33
24 26 25 25 23 22 21 18 18 23 22 27 39 46 47 47 50 53 54 53 54 54 54 56 56 56 56 55 54 52 51 51 50 48 48 48 46 44 42 41 40 40 38 36 34 34 35 37 35
27 26 26 28 24 19 20 19 19 19 20 22 28 41 46 45 47 50 53 52 52 53 54 55 56 56 56 55 54 53 52 51 49 48 46 46 44 43 41 40 38 35 34 31 31 33 32 31 33
26 23 19 17 18 17 25 24 23 23 25 25 25 32 41 43 44 48 49 49 50 52 54 55 56 56 56 55 55 54 53 52 50 48 46 44 41 39 38 36 34 33 34 37 35 31 30 32 33
25 23 20 15 15 15 26 20 19 26 32 33 30 27 38 40 42 45 47 49 50 53 55 56 56 56 56 56 55 55 54 53 51 49 46 43 39 37 36 35 37 40 37 33 33 32 34 34 34
26 23 25 24 28 24 21 23 21 27 30 34 33 33 35 39 41 44 47 49 51 54 55 56 56 56 57 57 56 55 54 53 50 49 45 40 38 37 37 41 41 34 32 37 35 33 34 33 32
26 27 22 23 17 15 17 19 17 21 25 33 34 34 38 41 44 45 49 52 53 54 55 56 57 56 57 57 56 54 52 51 49 46 44 40 38 37 41 41 34 34 38 35 33 32 33 31 31
26 24 23 23 20 15 15 16 19 20 26 25 32 36 39 44 44 48 50 54 55 55 56 56 56 57 56 54 53 52 50 48 47 46 45 42 39 41 40 35 36 38 34 32 32 32 31 31 30
26 24 23 20 18 24 21 17 23 20 23 28 30 36 41 46 47 49 51 53 54 55 56 56 56 56 55 51 49 48 46 46 46 44 41 40 40 37 36 40 38 33 30 30 32 31 30 31 30
Wind_Speed
5 5 4 5 3 4 3 6 3 8 3 2 1 3 3 5 2 3 4 5 18 22 21 22 25 25 26 27 27 26 27 26 27 26 24 24 25 25 25 24 26 25 24 26 27 27 25 24 22
5 3 6 4 4 1 6 4 6 9 1 1 6 2 6 4 4 3 3 10 18 20 20 21 24 25 26 27 26 25 26 25 25 24 24 25 25 24 26 25 25 26 26 28 26 28 26 25 23
3 4 4 4 4 10 4 4 7 1 4 3 4 7 3 5 2 1 4 17 18 19 20 21 25 25 26 26 25 24 24 24 24 23 23 24 25 23 24 25 25 27 28 29 27 27 26 25 23
2 3 5 1 9 6 6 9 6 2 6 14 6 5 3 5 4 4 10 15 18 16 18 23 24 25 26 26 25 23 19 21 21 22 22 22 23 23 22 24 26 27 28 28 29 27 26 24 22
4 3 2 2 3 5 5 5 3 6 8 6 3 2 3 3 8 11 11 7 15 16 18 21 24 21 25 25 24 24 20 17 18 19 21 21 21 20 20 21 24 25 27 26 26 25 23 20 20
2 3 1 6 7 4 5 4 2 3 6 6 7 4 2 4 10 15 17 17 10 9 13 21 28 24 22 25 21 22 19 17 18 17 18 19 17 19 19 18 20 23 23 24 22 23 23 22 20
4 3 3 2 5 6 4 4 1 2 4 4 6 6 1 9 13 18 18 22 20 9 15 11 26 20 20 21 21 21 19 16 17 17 15 15 16 17 17 16 16 17 19 21 22 21 22 22 21
5 3 1 2 3 5 1 3 2 4 3 3 3 8 6 6 16 19 19 23 25 17 22 23 20 11 15 15 21 19 19 14 15 17 14 15 15 16 15 16 14 17 19 20 22 21 21 22 20
4 2 2 5 4 4 2 2 1 5 6 5 6 2 12 15 19 21 20 22 24 23 24 16 17 15 11 12 10 15 16 16 16 15 13 13 11 13 14 15 16 17 19 21 21 21 21 21 20
2 3 7 7 8 8 4 5 7 4 6 4 8 16 16 16 16 19 17 18 24 26 17 14 14 17 9 6 8 10 11 12 13 13 11 10 10 9 12 14 15 17 19 21 20 20 19 18 16
5 7 12 11 14 2 5 5 3 9 4 10 18 22 19 16 15 17 15 15 19 21 19 14 14 13 12 7 8 8 11 11 11 12 11 10 9 10 10 11 10 12 16 14 15 15 15 15 14
4 12 10 9 4 5 8 7 4 4 4 10 19 17 17 15 15 16 17 16 15 21 21 19 18 18 12 7 8 9 10 10 10 10 10 11 10 10 9 9 11 14 13 16 15 14 15 18 17
5 9 2 3 9 7 9 6 5 1 7 19 18 16 14 14 14 15 17 17 16 17 17 14 16 13 11 11 9 6 10 10 12 12 12 11 12 11 11 9 12 13 13 14 15 15 15 16 13
1 5 5 4 7 6 9 6 2 2 15 17 13 14 15 16 16 18 20 21 21 20 22 20 18 15 14 13 14 13 11 12 12 13 12 10 12 13 12 12 12 13 12 11 14 13 14 12 10
2 2 3 2 5 4 12 3 3 11 19 19 14 11 15 14 14 21 23 22 23 19 18 16 13 12 13 11 12 13 13 12 11 11 11 12 12 12 13 15 13 13 13 15 14 12 11 10 9
3 2 2 7 2 1 1 3 10 18 18 21 16 16 14 14 20 15 18 18 19 17 18 12 12 14 14 12 13 13 13 12 11 9 7 8 9 13 15 16 14 14 14 14 12 11 9 8 8
6 3 1 3 4 2 4 3 11 17 14 17 19 18 14 16 14 15 15 17 17 16 14 16 13 17 17 13 12 14 14 12 10 8 9 11 12 15 17 14 14 15 13 12 10 4 4 6 5
3 2 5 10 2 9 4 10 15 17 15 19 20 18 15 17 24 18 18 17 15 17 14 13 13 14 15 13 11 9 9 9 8 9 10 12 14 15 15 14 15 13 12 11 8 7 5 3 4
3 5 7 5 8 5 13 14 13 15 12 16 19 19 19 21 21 17 17 19 19 18 18 17 17 15 15 12 12 11 12 9 7 8 10 12 14 14 15 14 14 12 13 11 10 6 4 2 2
2 4 8 7 4 2 8 9 6 18 22 21 24 23 23 19 16 19 18 18 21 22 21 19 20 20 17 14 10 6 8 5 6 7 10 13 14 14 14 16 15 13 11 10 7 5 3 2 4
3 4 2 2 9 1 3 6 8 9 15 14 18 24 22 25 24 21 22 22 19 21 23 23 23 23 19 16 15 8 10 5 4 6 9 10 13 14 14 15 15 12 9 11 7 5 4 4 4
3 3 5 7 7 8 1 8 6 8 18 20 23 23 24 23 20 20 22 23 25 25 18 17 16 17 15 17 18 17 15 13 11 11 8 10 12 14 13 13 13 12 10 10 8 6 4 1 1
5 1 1 1 2 2 1 2 8 2 14 24 27 25 24 24 24 24 27 30 20 19 19 18 17 16 14 17 17 18 14 9 7 7 13 11 8 10 12 13 13 13 14 12 10 9 6 2 0
3 3 4 4 2 4 3 5 7 8 13 14 21 21 23 23 25 24 21 18 20 18 18 20 19 18 16 17 16 20 19 15 12 12 15 14 12 12 13 16 18 17 14 13 11 8 5 4 3
3 4 3 2 1 5 1 1 14 10 10 14 17 27 28 24 24 24 23 23 21 23 21 19 19 20 21 19 20 21 20 18 18 18 19 19 17 12 15 14 13 14 14 12 8 7 7 6 4
4 6 5 2 2 3 1 6 6 3 7 11 13 13 18 20 21 23 27 25 22 22 22 22 21 20 19 21 22 17 16 17 16 19 20 17 16 15 14 17 13 12 15 12 8 9 6 7 5
4 4 4 5 2 2 4 6 12 6 4 7 5 6 15 21 21 25 20 21 20 22 25 24 21 19 19 23 20 17 16 17 17 14 15 16 17 18 19 20 15 18 16 9 11 4 7 8 8
2 10 2 2 3 4 4 5 7 11 6 4 4 1 4 12 14 15 16 18 18 18 19 19 22 24 23 19 18 17 17 16 16 17 20 23 24 24 20 14 17 14 10 6 3 5 6 9 9
4 4 3 5 4 3 4 5 7 8 6 7 6 3 5 9 15 17 17 17 18 16 19 22 21 20 18 18 16 16 16 15 16 18 18 17 16 15 12 14 14 11 8 5 6 8 10 12 12
5 9 10 10 6 3 3 13 6 9 8 7 6 4 4 8 10 12 13 14 19 22 22 23 16 17 17 15 13 13 12 13 12 10 12 13 14 15 16 14 9 8 7 6 7 12 15 16 14
Wind_Direction
124 106 89 49 104 64 267 251 279 262 251 8 69 52 116 67 152 234 354 200 139 142 140 135 134 131 126 123 121 121 120 120 120 119 120 118 114 110 107 105 104 100 94 92 87 93 109 107 98
128 90 64 87 102 193 253 274 296 312 322 49 97 58 37 61 43 90 81 145 138 136 135 133 131 128 124 122 121 121 121 123 119 122 122 120 116 116 110 106 103 98 94 91 92 94 99 100 93
113 33 94 108 147 224 235 235 328 284 139 41 66 56 39 351 41 55 175 149 139 136 134 136 131 128 124 122 121 122 123 126 125 124 123 121 117 115 110 105 103 100 94 92 94 99 99 94 91
137 27 58 178 235 261 235 304 331 117 44 30 22 62 76 341 302 164 138 122 128 131 136 137 127 129 126 124 121 118 124 121 126 126 124 121 118 115 107 103 102 102 100 94 90 96 97 95 93
46 72 169 232 260 251 248 269 215 141 128 73 87 88 58 10 96 92 85 99 120 133 138 132 127 129 123 121 122 123 117 126 124 126 125 124 120 113 105 105 105 107 106 102 97 94 92 97 98
63 90 129 251 255 270 258 211 230 16 140 163 115 82 329 171 77 82 64 54 52 101 143 143 131 121 123 122 124 113 123 131 127 124 123 119 115 115 110 106 106 108 105 102 102 100 98 92 95
150 127 210 230 283 292 242 131 232 151 95 42 111 116 222 107 95 83 79 72 50 82 84 81 100 119 115 111 111 118 126 130 125 120 118 117 118 115 111 108 104 104 108 106 97 91 90 89 85
134 111 161 253 272 287 316 120 119 100 132 95 122 167 172 144 110 97 87 88 80 74 88 99 105 76 92 104 119 132 126 120 118 115 123 123 115 113 113 108 102 94 96 102 92 89 86 83 80
114 70 227 237 229 265 142 142 13 55 88 45 342 116 123 129 112 101 102 103 103 97 98 95 90 112 93 109 123 114 120 132 118 119 128 123 125 119 115 113 104 104 100 94 92 90 86 83 74
132 170 235 230 218 260 134 181 178 143 113 69 91 110 122 127 117 109 123 118 122 122 126 126 133 106 79 62 98 125 126 116 121 136 143 132 130 122 114 109 111 103 97 95 93 90 84 79 77
174 228 253 262 241 118 154 182 182 141 196 189 167 151 145 131 125 123 116 121 128 131 126 124 122 110 140 155 155 127 122 126 144 154 149 145 133 122 122 113 101 105 101 97 93 85 81 83 81
243 244 236 275 160 134 167 131 105 194 264 158 152 147 147 147 143 142 133 126 128 132 132 138 139 150 206 155 164 134 142 150 161 168 163 148 140 137 127 125 125 120 113 106 98 95 86 77 75
234 281 288 141 137 129 130 129 131 342 125 124 142 142 157 157 161 152 146 154 150 157 160 159 162 198 201 170 157 167 167 174 178 185 182 168 152 154 139 132 131 122 119 117 106 94 86 83 79
187 3 36 54 138 153 138 134 157 197 117 123 147 158 171 177 161 150 158 167 173 168 177 188 190 193 183 184 170 176 184 184 193 195 197 189 171 165 154 147 132 124 121 109 104 102 97 94 87
231 17 39 163 174 213 133 140 185 147 144 142 163 188 189 179 167 169 168 178 179 188 196 201 191 185 181 187 172 176 191 187 197 203 197 190 182 167 154 145 139 130 123 115 108 100 97 94 80
120 31 231 223 165 253 217 220 174 165 160 150 173 197 186 186 187 176 168 183 187 191 201 190 189 189 188 190 182 182 189 185 181 175 161 160 161 160 145 142 141 141 132 129 115 109 98 91 83
35 315 302 275 181 145 237 290 190 182 162 158 175 192 190 192 198 189 181 189 197 197 193 189 187 191 188 189 185 184 185 179 178 169 164 161 153 150 153 148 151 145 144 130 130 123 121 106 109
158 256 262 251 288 227 237 260 184 186 178 172 179 188 193 195 213 201 185 184 199 200 200 195 189 189 180 169 169 168 162 167 180 187 172 162 161 159 156 153 149 149 141 133 135 126 79 124 168
197 218 227 269 255 258 250 240 203 192 193 181 189 195 201 209 211 211 199 182 189 201 199 198 189 189 169 168 169 177 184 172 189 195 165 165 169 165 160 154 152 156 155 156 136 120 139 157 132
268 212 228 252 291 123 327 271 199 191 211 198 194 199 207 211 198 202 208 198 194 197 198 190 193 186 182 175 172 165 166 172 180 179 176 180 170 167 160 158 160 161 148 137 155 160 145 129 171
269 226 263 226 347 309 308 290 206 211 206 204 212 210 206 203 201 198 198 205 202 201 200 197 195 190 183 170 153 120 108 100 171 191 188 188 175 166 163 169 161 154 143 156 154 138 147 165 207
271 229 285 337 349 298 141 298 270 226 212 213 215 209 209 210 208 200 196 200 205 207 199 199 197 190 180 170 178 177 186 183 196 193 185 180 175 171 171 158 152 148 146 129 118 121 124 111 302
230 252 258 196 223 291 242 197 276 164 233 229 224 214 212 210 203 201 203 206 204 198 194 192 189 190 183 186 191 188 181 173 168 180 172 161 160 159 154 150 143 137 128 125 115 95 71 29 241
222 175 56 60 122 217 238 187 269 230 233 242 229 222 214 208 210 210 206 197 199 190 189 188 186 187 191 190 193 197 196 193 189 188 175 170 161 160 157 152 145 138 127 118 117 113 147 201 206
172 78 318 272 224 247 82 271 251 278 295 272 246 219 218 209 202 204 195 193 192 193 187 184 189 196 199 195 206 209 204 192 195 187 180 175 170 162 154 142 131 117 109 118 141 155 187 200 197
166 146 187 287 233 259 294 240 265 247 305 307 260 237 212 208 204 203 200 195 191 187 186 191 197 204 197 206 217 215 198 192 201 189 182 174 164 144 137 123 130 140 152 148 163 199 187 171 178
156 175 155 119 39 254 254 286 291 357 317 351 12 179 209 217 204 206 198 192 187 185 191 192 200 207 205 212 215 207 194 197 194 182 157 148 140 144 147 152 165 162 161 192 209 183 193 191 214
172 152 145 45 233 252 284 283 262 321 335 336 346 306 212 225 224 214 198 189 187 191 190 196 204 207 211 212 206 199 196 190 176 162 162 162 164 165 163 161 164 162 207 215 173 207 206 217 227
149 181 125 133 164 249 268 251 222 276 292 341 349 285 214 213 220 215 206 192 192 185 190 202 204 208 205 204 202 200 196 185 175 179 175 173 153 146 150 162 167 189 209 171 196 204 226 225 230
198 212 184 221 223 198 224 268 257 257 284 268 294 280 255 228 226 227 214 195 195 202 200 202 195 202 209 200 191 186 170 166 167 159 137 137 146 146 151 177 192 181 170 200 202 230 228 226 231